EHI
0 0 0 0 0 0 0 0 0 0 0 0 0 0 0 0 0 0 0 0 0 0 0 0 0 0 0 0 0 0 0 0 0 0 0 0 0 0 0 0 0 0 0
0 0 0 0 0 0 0 0 0 0 0 0 0 0 0 0 0 0 0 0 0 0 0 0 0 0 0 0 0 0 0 0 0 0 0 0 0 0 0 0 0 0 0
0 0 0 0 0 0 0 0 0 0 0 0 0 0 0 0 0 0 0 0 0 0 0 0 0 0 0 0 0 0 0 0 0 0 0 0 0 0 0 0 0 0 0
0 0 0 0 0 0 0 0 0 0 0 0 0 0 0 0 0 0 0 0 0 0 0 0 0 0 0 0 0 0 0 0 0 0 0 0 0 0 0 0 0 0 0
0 0 0 0 0 0 0 0 0 0 0 0 0 0 0 0 0 0 0 0 0 0 0 0 0 0 0 0 0 0 0 0 0 0 0 0 0 0 0 0 0 0 0
0 0 0 0 0 0 0 0 0 0 0 0 0 0 0 0 0 0 0 0 0 0 0 0 0 0 0 0 0 0 0 0 0 0 0 0 0 0 0 0 0 0 0
0 0 0 0 0 0 0 0 0 0 0 0 0 0 0 0 0 0 0 0 0 0 0 0 0 0 0 0 0 0 0 0 0 0 0 0 0 0 0 0 0 0 0
0 0 0 0 0 0 0 0 0 0 0 0 0 0 0 0 0 0 0 0 0 0 0 0 0 0 0 0 0 0 0 0 0 0 0 0 0 0 0 0 0 0 0
0 0 0 0 0 0 0 0 0 0 0 0 0 0 0 0 0 0 0 0 0 0 0 0 0 0 0 0 0 0 0 0 0 0 0 0 0 0 0 0 0 0 0
0 0 0 0 0 0 0 0 0 0 0 0 0 0 0 0 0 0 0 0 0 0 0 0 0 0 0 0 0 0 0 0 0 0 0 0 0 0 0 0 0 0 0
0 0 0 0 0 0 0 0 0 0 0 0 0 0 0 0 0 0 0 0 0 0 0 0 0 0 0 0 0 0 0 0 0 0 0 0 0 0 0 0 0 0 0
0 0 0 0 0 0 0 0 0 0 0 0 0 0 0 0 0 0 0 0 0 0 0 0 0 0 0 0 0 0 0 0 0 0 0 0 0 0 0 0 0 0 0
0 0 0 0 0 0 0 0 0 0 0 0 0 0 0 0 0 0 0 0 0 0 0 0 0 0 0 0 0 0 0 0 0 0 0 0 0 0 0 0 0 0 0
0 0 0 0 0 0 0 0 0 0 0 0 0 0 0 0 0 0 0 0 0 0 0 0 0 0 0 0 0 0 0 0 0 0 0 0 0 0 0 0 0 0 0
0 0 0 0 0 0 0 0 0 0 0 0 0 0 0 0 0 0 0 0 0 0 0 0 0 0 0 0 0 0 0 0 0 0 0 0 0 0 0 0 0 0 0
0 0 0 0 0 0 0 0 0 0 0 0 0 0 0 0 0 0 0 0 0 0 0 0 0 0 0 0 0 0 0 0 0 0 0 0 0 0 0 0 0 0 0
0 0 0 0 0 0 0 0 0 0 0 0 0 0 0 0 0 0 0 0 0 0 0 0 0 0 0 0 0 0 0 0 0 0 0 0 0 0 0 0 0 0 0
0 0 0 0 0 0 0 0 0 0 0 0 0 0 0 0 0 0 0 0 0 0 0 0 0 0 0 0 0 0 0 0 0 0 0 0 0 0 0 0 0 0 0
0 0 0 0 0 0 0 0 0 0 0 0 0 0 0 0 0 0 0 0 0 0 0 0 0 0 0 0 0 0 0 0 0 0 0 0 0 0 0 0 0 0 0
0 0 0 0 0 0 0 0 0 0 0 0 0 0 0 0 0 0 0 0 0 0 0 0 0 0 0 0 0 0 0 0 0 0 0 0 0 0 0 0 0 0 0
0 0 0 0 0 0 0 0 0 0 0 0 0 0 0 0 0 0 0 0 0 0 0 0 0 0 0 0 0 0 0 0 0 0 0 0 0 0 0 0 0 0 0
0 0 0 0 0 0 0 0 0 0 0 0 0 0 0 0 0 0 0 0 0 0 0 0 0 0 0 0 0 0 0 0 0 0 0 0 0 0 0 0 0 0 0
0 0 0 0 0 0 0 0 0 0 0 0 0 0 0 0 0 0 0 0 0 0 0 0 0 0 0 0 0 0 0 0 0 0 0 0 0 0 0 0 0 0 0
0 0 0 0 0 0 0 0 0 0 0 0 0 0 0 0 0 0 0 0 0 0 0 0 0 0 0 0 0 0 0 0 0 0 0 0 0 0 0 0 0 0 0
0 0 0 0 0 0 0 0 0 0 0 0 0 0 0 0 0 0 0 0 0 0 0 0 0 0 0 0 0 0 0 0 0 0 0 0 0 0 0 0 0 0 0
0 0 0 0 0 0 0 0 0 0 0 0 0 0 0 0 0 0 0 0 0 0 0 0 0 0 0 0 0 0 0 0 0 0 0 0 0 0 0 0 0 0 0
Wind_Speed
7 7 7 8 8 9 9 10 11 11 13 15 17 18 18 17 14 10 9 9 8 8 8 8 9 9 7 6 6 6 6 7 9 9 7 8 9 10 10 8 7 5 4
6 7 7 8 9 9 10 11 11 12 13 14 15 16 17 16 13 11 9 9 8 9 9 8 8 8 8 7 6 7 6 6 7 11 9 7 8 8 8 8 6 4 3
6 7 7 8 9 9 10 10 11 11 12 14 14 16 16 15 11 11 11 11 10 10 10 10 9 9 9 8 7 7 7 7 6 8 9 7 6 6 6 6 5 3 4
6 6 7 8 9 9 10 10 10 11 11 13 14 15 15 13 8 9 11 12 12 12 12 11 11 11 10 10 8 8 9 8 7 7 7 6 5 5 4 3 3 2 2
6 6 7 8 8 9 9 10 10 10 12 12 13 14 15 13 8 7 9 11 11 12 12 13 13 19 21 16 12 10 10 8 7 7 7 7 6 6 5 4 4 3 2
6 6 7 8 9 9 9 9 10 10 10 11 11 13 14 13 20 22 14 9 10 11 12 13 13 14 19 21 23 21 18 12 10 7 6 8 8 7 7 6 5 2 1
6 6 7 7 9 9 10 10 10 9 9 10 11 11 13 17 24 22 22 10 9 9 10 12 13 15 18 7 15 19 17 20 18 10 7 8 8 8 9 8 6 4 3
6 6 7 7 8 9 8 9 9 7 8 7 9 11 11 16 25 20 20 9 7 9 9 11 12 12 16 14 11 11 9 10 14 9 7 7 8 9 8 7 7 6 5
6 6 7 7 7 8 8 8 7 7 7 7 8 9 11 15 23 21 15 6 7 9 9 12 14 10 23 24 14 13 12 10 15 19 17 15 16 16 12 6 6 3 2
6 6 7 6 7 7 7 7 6 7 7 9 10 9 10 11 20 23 15 5 6 7 8 11 18 21 24 25 14 13 14 12 12 12 12 13 10 11 14 7 5 4 3
6 6 6 6 7 7 6 6 7 8 9 9 9 9 9 11 16 21 19 4 5 7 9 9 11 25 25 25 20 13 18 15 11 10 8 8 7 7 7 6 4 3 3
6 6 6 7 7 7 7 7 7 7 8 8 7 8 7 8 13 16 19 15 10 5 7 8 11 24 24 24 18 22 23 17 9 9 9 9 10 10 9 8 7 5 6
6 6 7 7 6 6 6 7 7 6 7 8 7 7 8 7 10 18 16 15 15 6 5 14 18 22 19 15 21 24 18 11 10 10 10 10 9 9 9 8 7 6 5
6 6 6 6 7 7 6 6 6 7 8 7 6 7 8 8 8 7 4 5 9 7 4 10 15 17 15 16 16 14 11 11 11 10 10 9 9 8 8 8 7 7 4
6 6 6 6 6 6 7 5 8 7 10 11 7 7 8 8 11 18 10 6 5 5 4 4 5 7 8 8 9 10 10 10 11 10 10 10 10 10 10 9 7 6 5
5 5 5 5 6 6 7 8 11 13 17 17 17 17 12 15 20 19 18 15 15 14 7 3 5 5 7 8 8 9 8 10 10 10 10 10 10 10 10 9 8 7 6
5 5 5 5 5 6 7 8 9 11 15 16 18 21 20 21 21 20 19 17 15 12 4 3 3 4 4 5 5 6 7 8 8 8 9 9 10 10 10 10 9 8 7
4 6 6 4 4 5 5 6 7 9 10 9 13 19 21 21 20 20 19 13 8 6 3 3 3 3 3 3 4 4 5 7 7 8 8 9 9 9 9 10 10 10 8
4 4 4 3 3 4 5 5 6 7 8 8 8 11 17 18 18 19 17 7 7 7 5 4 3 3 3 3 3 3 4 5 6 6 7 8 8 8 9 9 9 14 11
3 7 6 3 3 4 4 4 5 6 7 7 8 9 9 9 8 10 10 8 7 7 6 5 4 3 2 2 2 3 3 4 5 5 6 7 7 7 9 10 10 9 9
3 4 6 4 3 4 4 4 4 5 6 7 7 11 16 8 8 9 9 9 9 9 8 7 5 4 3 2 2 2 2 3 3 4 5 6 6 7 7 8 9 9 9
3 2 2 3 3 4 3 3 4 4 5 7 7 8 15 8 7 8 9 9 9 9 8 7 5 4 3 3 3 2 1 1 2 3 4 4 5 6 6 7 8 8 9
3 3 2 2 3 5 4 4 4 4 5 6 6 7 8 7 8 9 9 10 9 9 9 8 6 4 3 4 4 4 3 2 1 0 2 3 4 5 5 6 8 9 9
4 4 3 2 2 3 3 4 4 4 5 5 5 6 7 7 8 9 10 10 10 10 10 9 8 8 6 4 4 5 4 4 3 2 2 2 3 3 4 5 6 8 8
5 4 3 3 2 2 3 3 4 4 5 6 6 6 7 8 8 9 9 10 11 12 13 12 9 8 8 6 6 7 10 11 8 5 3 3 3 3 3 4 5 6 7
5 5 4 3 3 2 3 3 3 4 4 5 5 6 7 8 8 9 9 9 11 11 12 11 12 13 11 5 7 11 14 14 12 11 6 4 3 3 3 3 5 6 7
Wind_Direction
312 316 322 320 322 323 320 318 318 318 321 323 324 327 330 330 330 326 320 313 306 306 309 307 307 304 304 300 297 294 290 287 285 288 283 287 289 291 294 293 286 281 292
311 320 323 323 324 323 321 319 321 322 324 326 329 334 339 342 346 349 342 340 334 332 332 330 329 332 329 321 319 317 308 297 292 294 294 290 286 287 285 284 283 280 275
317 324 325 325 325 323 321 321 324 326 327 331 336 338 341 345 357 7 7 5 1 355 352 350 345 344 344 339 337 335 327 322 308 298 296 292 289 291 289 282 275 268 273
327 327 327 324 323 321 322 324 327 328 331 334 336 337 340 340 356 18 17 16 11 8 4 359 352 354 356 349 351 351 340 332 329 321 311 310 308 306 300 300 303 273 282
328 329 326 323 321 323 326 327 329 333 337 334 335 338 341 340 355 34 24 12 7 4 1 357 353 0 4 4 360 360 351 343 344 339 337 336 337 344 342 325 306 289 281
326 324 323 327 327 328 328 331 332 333 333 334 335 336 341 341 1 27 32 11 4 2 358 353 349 351 360 6 2 4 2 355 356 352 345 342 339 338 333 329 318 323 348
323 321 324 325 327 328 332 334 332 327 328 331 330 334 337 335 359 25 26 17 1 357 354 351 352 349 354 359 357 359 358 358 359 356 340 336 330 333 332 330 332 334 328
320 320 320 322 322 323 327 329 325 319 323 322 322 329 333 337 351 17 26 15 358 351 348 346 345 343 343 10 359 350 351 352 351 349 341 335 335 332 331 319 307 304 287
318 316 314 314 316 320 323 322 316 316 316 317 320 325 330 331 340 2 27 4 3 349 347 352 349 348 354 10 6 352 351 352 352 354 358 359 359 354 359 350 337 314 298
306 305 304 307 313 312 312 311 309 313 318 323 324 324 321 319 332 346 15 12 4 355 349 348 349 4 4 7 9 355 355 355 346 343 347 350 349 349 4 6 340 323 319
299 301 304 308 308 302 308 305 309 315 319 314 311 312 310 319 330 334 349 11 11 359 353 349 347 4 7 7 9 4 1 1 345 341 341 344 346 348 347 342 326 298 291
300 302 304 306 307 317 313 306 307 308 310 307 304 308 311 314 325 326 339 350 5 6 349 340 351 5 8 7 8 8 6 3 352 351 353 354 352 349 341 331 317 292 262
306 304 303 306 305 307 306 304 308 306 306 306 309 316 318 316 317 324 331 341 350 1 350 354 1 5 7 3 5 9 6 359 357 356 354 351 343 335 333 333 332 321 289
303 304 305 306 308 311 313 313 311 310 310 312 319 319 315 311 308 305 302 319 337 346 356 354 1 2 7 5 5 4 1 0 1 353 349 343 342 346 352 351 348 344 340
298 302 309 311 307 312 317 312 314 310 322 337 332 322 320 316 327 343 350 341 335 338 8 1 354 354 359 1 2 2 360 360 359 354 354 351 353 356 357 356 354 356 4
298 308 310 309 314 320 318 321 327 334 337 343 343 343 334 340 349 355 355 355 351 354 12 352 347 350 354 357 358 356 356 359 356 353 355 355 355 356 357 358 5 7 7
278 296 303 312 318 322 326 329 329 333 340 346 348 346 351 357 1 360 2 2 356 360 8 329 325 329 335 343 347 349 349 347 348 351 355 355 356 359 3 5 7 9 8
274 294 307 301 306 312 318 323 328 331 333 335 340 344 350 357 0 1 4 1 348 350 321 306 305 309 318 329 338 342 342 346 351 353 354 355 358 1 6 8 9 14 13
273 281 288 295 306 309 313 320 327 329 330 331 331 336 345 354 356 358 2 353 335 331 320 306 294 293 300 315 327 336 340 344 349 351 355 355 357 2 8 10 11 18 25
264 296 314 321 320 317 315 321 331 334 333 334 335 330 334 352 350 349 349 343 340 333 323 309 294 281 279 289 310 330 342 348 353 355 353 355 356 2 7 10 14 17 22
246 285 313 324 311 305 305 318 325 329 331 332 329 330 350 357 345 341 340 341 339 334 329 319 300 278 260 247 255 299 330 342 350 352 354 355 358 3 4 11 18 22 27
224 245 271 288 296 301 312 321 319 319 322 325 326 333 349 351 339 337 336 334 331 328 324 319 304 276 244 224 216 221 256 313 343 354 356 358 1 5 8 14 21 27 31
204 230 258 279 290 313 331 318 314 317 320 320 324 336 342 341 339 336 334 332 329 327 325 321 312 293 251 217 203 198 204 218 216 139 18 13 11 11 12 18 22 28 38
193 212 231 257 279 294 304 309 314 320 322 319 325 333 335 333 330 331 331 328 327 326 325 324 318 305 286 233 200 195 196 193 173 155 121 67 37 23 23 26 29 32 35
189 201 212 226 253 281 297 307 314 320 324 326 331 333 331 329 329 329 328 326 327 326 325 325 323 318 304 262 207 195 203 203 189 160 136 110 82 55 47 41 42 43 45
188 196 202 210 227 251 273 292 305 315 317 321 325 321 321 323 323 324 325 326 328 326 325 325 323 323 316 286 217 205 204 201 193 174 147 131 117 96 79 64 61 59 57